Regional Weather Roundup
Issued by NWS State College, PA

Home | Current Version | Previous Version | Text Only | Print | Product List | Glossary Off
Versions: 1 2 3 4 5 6 7 8 9 10 11 12 13 14 15 16 17 18 19 20 21 22 23 24 25 26 27 28 29 30 31 32 33 34 35 36 37 38 39 40 41 42 43 44 45 46 47 48 49 50

000
ASUS41 KCTP 242203
RWRCTP

REGIONAL WEATHER ROUNDUP
NATIONAL WEATHER SERVICE STATE COLLEGE PA
600 PM EDT SAT JUN 24 2017

Note: "fair" indicates few or no clouds below 12,000 feet with no
significant weather and/or obstructions to visibility.

* = STATION THAT DOES NOT REPORT PRECIPITATION /E.G. RAIN...SNOW...ETC/
    THUNDER OR FOG.

PAZ002>004-007>009-013>016-020>023-029>032-242300-
WESTERN PENNSYLVANIA

CITY           SKY/WX    TMP DP  RH WIND       PRES   REMARKS
ERIE           SUNNY     74  56  53 W13G22    29.90S
MEADVILLE      SUNNY     73  52  47 W12G20    29.93S
FRANKLIN*      MOSUNNY   73  52  46 W9G16     29.94R
NEW CASTLE     FAIR      77  55  46 W10G17    29.93R
BEAVER COUNTY  NOT AVBL
BUTLER*        MOSUNNY   77  55  47 W13       29.93R
PITTSBURGH INT MOSUNNY   76  56  49 W10G20    29.92S
PITTSBURGH     MOSUNNY   77  53  43 W14G20    29.92R
INDIANA*       MOSUNNY   77  59  53 NW8       29.94R
LATROBE        MOSUNNY   77  55  47 W12G23    29.93R
WASHINGTON CO* MOSUNNY   77  55  47 W9        29.96S
$$

PAZ004>006-010>012-017>019-024>028-033>037-041-042-045-046-049>053-242300-
CENTRAL PENNSYLVANIA

CITY           SKY/WX    TMP DP  RH WIND       PRES   REMARKS
BRADFORD       MOSUNNY   71  54  54 W13G26    29.92R
DUBOIS         CLOUDY    72  53  51 W13G23    29.90S
CLEARFIELD     CLOUDY    77  58  51 VRB7      29.90R
JOHNSTOWN      MOSUNNY   73  56  54 W17G25    29.94S
ALTOONA        PTSUNNY   77  58  51 W10       29.92S
STATE COLLEGE  MOSUNNY   75  57  53 W12       29.88F
WILLIAMSPORT   SUNNY     83  56  39 W17G24    29.80F
SELINSGROVE    SUNNY     83  58  42 VRB6G16   29.84F
FT INDIANTOWN  SUNNY     83  57  41 SW13      29.85S
CAPITAL CITY   MOSUNNY   84  55  36 W9G16     29.85F
HARRISBURG     MOSUNNY   83  59  44 W10       29.85S
YORK           MOSUNNY   82  59  45 W9        29.87S
$$

PAZ038>040-043-044-047-048-054-055-060>062-067>071-242300-
EASTERN PENNSYLVANIA

CITY           SKY/WX    TMP DP  RH WIND       PRES   REMARKS
SCRANTON       MOSUNNY   83  56  39 W12       29.82S
MOUNT POCONO   MOSUNNY   74  54  49 W13       29.88S
ALLENTOWN      MOSUNNY   83  58  42 W14       29.83R
QUAKERTOWN*    CLEAR     82  59  44 W7        29.85S
READING        SUNNY     83  59  44 W13G22    29.84S
LANCASTER      MOSUNNY   84  59  42 W12       29.85S
COATESVILLE    CLEAR     81  59  47 W9        29.89S
POTTSTOWN      MOSUNNY   82  59  45 VRB7      29.86S
BLUE BELL      MOSUNNY   81  59  47 W10       29.85F
DOYLESTOWN     MOSUNNY   83  59  44 W9        29.83S
WILLOW GROVE   NOT AVBL
NORTH PHILA    MOSUNNY   86  58  38 W12G22    29.85R
PHILADELPHIA   MOSUNNY   86  57  37 W13       29.84S
$$




USA.gov is the U.S. government's official web portal to all federal, state and local government web resources and services.